This is the latest recevied weather packets stored in our database for station/object I5EKX-13. If no packets are shown the sender has not sent any weather packets the latest 10 day(s).
| Time | Temp. | Humidity | Pressure | Rain* | Wind** | Luminosity | Snow |
|---|---|---|---|---|---|---|---|
| 1777894647 | 22.78° C | 55% | 1013.8 hPa | - | - | - | - |
| 1777893443 | 23.89° C | 54% | 1013.9 hPa | - | - | - | - |
| 1777892239 | 23.33° C | 55% | 1014.1 hPa | - | - | - | - |
| 1777891035 | 22.78° C | 56% | 1014.3 hPa | - | - | - | - |
| 1777886218 | 22.78° C | 57% | 1014.4 hPa | - | - | - | - |
| 1777885013 | 22.22° C | 57% | 1014.3 hPa | - | - | - | - |
| 1777883809 | 22.78° C | 55% | 1014.3 hPa | - | - | - | - |
| 1777882605 | 22.22° C | 57% | 1014.3 hPa | - | - | - | - |
| 1777880196 | 20° C | 57% | 1014 hPa | - | - | - | - |
| 1777878992 | 19.44° C | 58% | 1014.1 hPa | - | - | - | - |
| 1777877788 | 18.33° C | 63% | 1014.1 hPa | - | - | - | - |
| 1777876584 | 17.22° C | 66% | 1013.9 hPa | - | - | - | - |
| 1777875379 | 16.11° C | 67% | 1014.1 hPa | - | - | - | - |
| 1777874175 | 15.56° C | 74% | 1014.2 hPa | - | - | - | - |
| 1777872970 | 14.44° C | 78% | 1014.1 hPa | - | - | - | - |
| 1777871766 | 13.89° C | 81% | 1013.9 hPa | - | - | - | - |
| 1777870562 | 12.78° C | 82% | 1013.7 hPa | - | - | - | - |
| 1777869358 | 12.78° C | 82% | 1013.6 hPa | - | - | - | - |
| 1777868154 | 12.78° C | 82% | 1013.4 hPa | - | - | - | - |
| 1777866952 | 12.22° C | 82% | 1013.3 hPa | - | - | - | - |
| 1777865745 | 12.22° C | 80% | 1013.2 hPa | - | - | - | - |
| 1777864540 | 12.22° C | 80% | 1013.1 hPa | - | - | - | - |
| 1777863335 | 12.22° C | 80% | 1013.1 hPa | - | - | - | - |
| 1777862131 | 12.78° C | 77% | 1013.4 hPa | - | - | - | - |
| 1777860927 | 11.67° C | 82% | 1013.5 hPa | - | - | - | - |
* Rain since midnight (hover to see other rain measurements)
** Current wind speed in m/s (hover to see current wind gust speed)